"Pseudo-MPEC" for P1130pX

Created 2020 Aug 10 19:07:10 UT using Find_Orb

Click here for an explanation of pseudo-MPECs

 
 Astrometry: 
     P1130pX  C2020 07 21@/9A$plq`1@w2E+Y]\3OhjLAstrometryJw)e\L_[SC_#i0=P:3PF51
     P1130pX  C2020 07 21FFg(Y=J#redacted;iclickOUjXt*Z(eg%$jn5-I?6IH67*ITUMwF51
     P1130pX  C2020 07 21*\gVmFjhereO1for1TiU#$=x?p!Aexplanation,8KUFZ\Dr1Z)YF51

Station data:
(F51) Pan-STARRS 1, Haleakala  (N20.707235 W156.255910)  US/Hawaii.
   Observers N. Primak, A. Schultz, S. Watters, J. Thiel, T. Goggia. Measurer
   PS1 Science Consortium. 1.8-m Ritchey-Chrétien + CCD.

Orbital elements:  P1130pX
   Perihelion 2022 Jan 18.842808 +/- 394 TT = 20:13:38 (JD 2459598.342808)
Epoch 2020 Jul 21.0 TT = JDT 2459051.5   Earth MOID: 0.8574   AutoNEOCP
M 262.24455776 +/- 100              (J2000 ecliptic)
n   0.17876333 +/- 0.373            Peri.  203.71925 +/- 60
a   3.12092804 +/- 4.34             Node   171.62855 +/- 55
e   0.4108114 +/- 0.203             Incl.   27.82591 +/- 29
P   5.51                   H 16.5   G  0.15   U 12.1  SR
q 1.83881513 +/- 1.78    Q 4.40304095 +/- 56.8
From 3 observations 2020 July 21 (34.1 min); mean residual 0".02
Residuals in arcseconds: 
200721 F51  .01-  .02-    200721 F51  .03+  .04+    200721 F51  .01-  .02-    

Ephemerides (geocentric):
Date (UTC) HH   RA              Dec         delta   r     elong  mag " sig PA
---- -- -- --  -------------   -----------  ------ ------ -----  --- ---- ---
2020 08 10 19  15 01 08.569   +09 44 28.72  3.6662 3.6692  82.2 23.0 2339  28
2020 08 10 20  15 01 09.645   +09 44 11.41  3.6666 3.6691  82.2 23.0 2347  28
2020 08 10 21  15 01 10.722   +09 43 54.11  3.6670 3.6690  82.2 23.0 2356  28
2020 08 10 22  15 01 11.801   +09 43 36.80  3.6675 3.6688  82.1 23.0 2364  28
2020 08 10 23  15 01 12.881   +09 43 19.48  3.6679 3.6687  82.1 23.0 2372  28
2020 08 11 00  15 01 13.963   +09 43 02.17  3.6683 3.6686  82.1 23.0 2381  28
2020 08 11 01  15 01 15.046   +09 42 44.85  3.6687 3.6685  82.0 23.0 2389  28
2020 08 11 02  15 01 16.131   +09 42 27.53  3.6692 3.6683  82.0 23.0 2398  28
2020 08 11 03  15 01 17.217   +09 42 10.20  3.6696 3.6682  82.0 23.0 2406  28
2020 08 11 04  15 01 18.305   +09 41 52.88  3.6700 3.6681  82.0 23.0 2415  28
2020 08 11 05  15 01 19.394   +09 41 35.55  3.6704 3.6680  81.9 23.0 2423  28
2020 08 11 06  15 01 20.485   +09 41 18.21  3.6708 3.6678  81.9 23.0 2431  28
2020 08 11 07  15 01 21.577   +09 41 00.87  3.6713 3.6677  81.9 23.0 2440  28
2020 08 11 08  15 01 22.671   +09 40 43.54  3.6717 3.6676  81.8 23.0 2448  29
2020 08 11 09  15 01 23.766   +09 40 26.19  3.6721 3.6674  81.8 23.0 2457  29
2020 08 11 10  15 01 24.863   +09 40 08.85  3.6725 3.6673  81.8 23.0 2466  29
2020 08 11 11  15 01 25.961   +09 39 51.50  3.6730 3.6672  81.7 23.0 2474  29
2020 08 11 12  15 01 27.061   +09 39 34.15  3.6734 3.6671  81.7 23.0 2483  29
2020 08 11 13  15 01 28.162   +09 39 16.79  3.6738 3.6669  81.7 23.0 2491  29
2020 08 11 14  15 01 29.265   +09 38 59.44  3.6742 3.6668  81.6 23.0 2500  29
2020 08 11 15  15 01 30.369   +09 38 42.08  3.6746 3.6667  81.6 23.0 2508  29
2020 08 11 16  15 01 31.475   +09 38 24.71  3.6751 3.6665  81.6 23.0 2517  29
2020 08 11 17  15 01 32.582   +09 38 07.35  3.6755 3.6664  81.6 23.0 2526  29
2020 08 11 18  15 01 33.691   +09 37 49.98  3.6759 3.6663  81.5 23.0 2534  29
2020 08 11 19  15 01 34.802   +09 37 32.61  3.6763 3.6662  81.5 23.0 2543  29
2020 08 11 20  15 01 35.913   +09 37 15.23  3.6767 3.6660  81.5 23.0 2552  29
2020 08 11 21  15 01 37.027   +09 36 57.86  3.6772 3.6659  81.4 23.0 2560  29
2020 08 11 22  15 01 38.141   +09 36 40.48  3.6776 3.6658  81.4 23.0 2569  29
2020 08 11 23  15 01 39.258   +09 36 23.10  3.6780 3.6656  81.4 23.0 2578  29
2020 08 12 00  15 01 40.375   +09 36 05.71  3.6784 3.6655  81.3 23.0 2587  29
2020 08 12 01  15 01 41.495   +09 35 48.32  3.6788 3.6654  81.3 23.0 2596  29
2020 08 12 02  15 01 42.615   +09 35 30.93  3.6793 3.6653  81.3 23.0 2604  29
2020 08 12 03  15 01 43.738   +09 35 13.54  3.6797 3.6651  81.3 23.0 2613  29
2020 08 12 04  15 01 44.861   +09 34 56.14  3.6801 3.6650  81.2 23.0 2622  29
2020 08 12 05  15 01 45.987   +09 34 38.74  3.6805 3.6649  81.2 23.0 2631  29
2020 08 12 06  15 01 47.113   +09 34 21.34  3.6810 3.6647  81.2 23.0 2640  29
2020 08 12 07  15 01 48.242   +09 34 03.93  3.6814 3.6646  81.1 23.0 2649  29
2020 08 12 08  15 01 49.371   +09 33 46.53  3.6818 3.6645  81.1 23.0 2657  29
2020 08 12 09  15 01 50.502   +09 33 29.12  3.6822 3.6644  81.1 23.0 2666  29
2020 08 12 10  15 01 51.635   +09 33 11.70  3.6826 3.6642  81.0 23.0 2675  29
2020 08 12 11  15 01 52.769   +09 32 54.29  3.6831 3.6641  81.0 23.0 2684  29
2020 08 12 12  15 01 53.905   +09 32 36.87  3.6835 3.6640  81.0 23.0 2693  29
2020 08 12 13  15 01 55.042   +09 32 19.45  3.6839 3.6638  81.0 23.0 2702  29
2020 08 12 14  15 01 56.181   +09 32 02.02  3.6843 3.6637  80.9 23.0 2711  29
2020 08 12 15  15 01 57.321   +09 31 44.60  3.6847 3.6636  80.9 23.0 2720  29
2020 08 12 16  15 01 58.463   +09 31 27.17  3.6852 3.6635  80.9 23.0 2729  29
2020 08 12 17  15 01 59.606   +09 31 09.73  3.6856 3.6633  80.8 23.0 2738  29
2020 08 12 18  15 02 00.750   +09 30 52.30  3.6860 3.6632  80.8 23.0 2747  29